Location: Erdweis
(48.5167°N, 15.3500°E)
Time: 14:03:22
(UTC+00:00)

USA 234 - Pass Details

Date: 19 January 2021
Orbit: 1100 x 1107 km, 123.0° (Epoch: 01 March)

Event Time Altitude Azimuth Distance (km) Brightness Sun altitude
Exits shadow 19:24:47 54° 292° (WNW) 1,315 3.8 -37.2°
Drops below altitude 10° 19:29:43 10° 304° (NW) 2,967 6.2 -38.0°
Sets 19:32:13 0° 305° (NW) 3,928 7.0 -38.4°
